Theta_e
307 299 296 296 299 301 302 302 302 303 301 300 299 298 297 297 298 301 300 300 301 298 299 300 301 301 302 302 299 299 299 299 299 297 297 297 297 297 297 297 297 297 296 298 298 298 298 299 299 299 300 300 300 301 302 303 303 303 304 305 305 306 307 307 306 305 304 302 300 300 298 297 298 298 298 297 298 298 298 299 299 299 299 300 301 302
303 297 298 301 302 303 304 304 303 302 300 299 298 297 297 298 296 300 299 298 300 298 298 301 300 299 301 303 299 299 298 297 298 298 298 297 297 297 296 296 296 296 297 297 297 297 298 299 299 299 299 300 300 299 301 301 301 303 304 304 304 305 305 304 304 302 301 301 300 298 297 297 297 297 296 296 296 296 297 297 297 298 298 298 298 298
297 295 300 303 305 304 303 303 302 301 299 299 297 297 296 297 300 302 298 298 299 297 296 300 298 299 300 302 299 298 298 299 300 299 299 297 296 296 296 296 296 296 296 296 296 297 298 298 298 299 299 298 298 299 299 300 302 303 304 304 303 303 303 302 302 301 299 299 299 298 297 296 295 296 296 296 295 296 295 295 296 296 296 296 296 297
295 298 302 305 304 302 300 300 300 299 299 297 297 295 294 299 297 295 296 297 297 297 297 297 296 298 301 302 298 299 299 298 297 296 296 296 296 296 295 296 296 296 296 296 296 296 297 298 298 298 298 297 298 298 298 299 301 302 303 303 302 301 300 299 298 298 298 298 298 298 297 297 296 294 295 295 294 294 294 293 294 295 295 295 295 295
298 302 304 304 302 301 299 299 298 297 295 298 298 297 296 297 298 297 297 297 297 298 298 297 295 296 299 299 296 295 296 294 294 294 294 295 296 296 296 295 296 296 296 295 295 296 296 297 297 297 297 298 297 297 297 299 299 301 301 302 302 301 299 299 298 298 298 297 297 296 296 297 296 295 294 293 292 292 292 292 293 293 294 294 294 294
299 302 303 301 301 300 299 297 298 298 295 297 299 298 299 299 298 299 300 296 296 296 296 295 290 293 300 301 300 293 293 293 294 293 293 294 294 293 293 294 294 295 296 296 296 295 296 296 296 297 297 297 297 296 296 298 299 300 300 300 300 300 300 300 300 300 300 298 297 296 295 293 293 291 291 290 289 290 290 290 292 293 293 293 293 293
300 301 302 299 299 299 299 298 299 299 296 295 298 301 300 299 299 299 298 295 292 290 295 297 290 289 298 297 299 293 293 293 292 293 294 293 293 293 294 294 294 294 293 295 295 295 295 296 296 296 296 296 295 295 296 297 297 298 298 299 299 298 298 298 298 299 299 298 297 296 295 294 292 290 290 291 291 291 291 291 291 291 292 293 292 293
300 298 300 301 299 299 298 296 300 299 296 295 299 301 300 299 298 298 298 296 295 299 297 293 295 289 289 296 297 296 294 293 291 292 293 293 293 293 294 294 294 294 294 294 294 295 296 296 296 295 295 295 294 295 295 296 296 296 297 297 297 296 296 297 298 298 298 296 295 294 293 292 291 291 290 291 291 292 291 291 290 290 291 292 292 292
300 297 299 298 298 298 297 299 302 302 298 298 297 300 299 299 299 299 297 295 295 293 290 292 296 288 288 295 295 295 293 293 293 293 293 293 293 293 294 294 294 294 295 295 294 293 294 293 294 294 293 293 294 294 294 294 295 295 295 296 296 295 296 296 296 296 296 295 294 293 292 291 291 291 291 291 291 291 291 291 291 290 290 290 291 292
299 299 300 301 299 296 300 299 302 302 297 297 299 299 299 299 298 298 295 294 294 290 285 291 293 287 288 296 293 294 293 294 295 295 294 294 293 293 293 294 294 294 294 294 294 294 293 293 292 293 293 293 293 293 294 294 295 295 295 294 294 294 295 295 295 295 295 295 294 293 292 291 291 291 291 291 291 291 291 290 290 290 290 290 290 291
297 297 298 299 299 301 297 296 296 300 299 300 300 298 297 296 295 295 295 293 290 284 287 293 294 291 286 294 296 292 294 296 298 296 295 294 294 294 294 294 293 293 293 293 293 293 292 292 292 292 292 292 292 293 294 294 294 294 294 294 293 293 294 294 295 295 294 294 294 293 293 292 291 291 291 290 290 290 290 289 290 290 290 290 289 290
297 297 298 300 298 299 300 295 296 297 300 300 297 296 295 292 294 292 290 292 285 284 290 293 294 294 284 290 298 299 298 300 298 295 294 293 292 293 293 293 293 293 293 292 292 291 291 290 290 291 291 291 291 292 293 294 294 294 294 293 293 293 293 294 294 294 294 294 294 294 293 292 292 292 291 290 290 290 290 290 289 289 289 289 289 289
295 296 300 297 298 299 298 297 294 296 296 298 296 295 289 288 286 284 287 282 283 284 287 289 292 290 289 294 297 297 297 297 299 299 296 294 293 293 293 293 293 293 293 292 291 291 290 290 290 290 290 291 291 292 292 293 293 293 293 293 292 292 293 293 293 293 293 293 293 293 293 292 292 292 291 291 290 291 290 290 289 289 288 288 288 288
294 299 298 298 297 298 301 294 291 290 293 294 293 291 288 286 284 281 285 286 287 287 287 288 292 286 293 295 299 297 294 295 295 298 298 295 293 293 293 293 293 293 292 292 291 291 290 291 290 290 290 290 291 291 292 292 293 293 292 292 292 291 292 292 293 292 292 292 292 292 292 292 292 291 291 291 290 290 290 290 289 288 288 287 287 287
288 289 293 296 293 299 298 300 298 297 293 294 298 295 291 290 287 282 284 282 283 286 285 290 286 285 286 291 291 292 292 292 293 295 298 296 295 295 294 293 293 292 292 291 291 290 290 291 290 290 290 291 291 291 291 292 292 292 292 291 291 291 291 292 292 292 292 292 292 292 292 292 292 291 291 290 290 289 289 289 288 288 288 287 286 286
293 294 299 301 300 299 297 301 304 300 295 296 298 299 292 290 296 287 287 286 285 284 283 284 286 292 292 293 292 291 292 291 292 294 295 295 295 294 292 292 292 291 291 290 290 290 290 290 290 290 290 290 290 290 291 291 292 292 291 291 291 291 291 291 291 291 291 292 292 292 291 291 291 290 290 290 290 289 289 288 287 287 287 287 286 286
293 292 295 297 297 298 299 301 300 302 288 294 295 289 292 297 295 287 284 285 283 285 283 288 287 291 295 292 291 292 291 290 291 292 294 293 293 293 292 292 291 291 290 290 290 290 289 289 289 289 289 289 289 290 290 291 292 291 291 291 290 291 291 291 291 291 291 291 291 291 291 291 291 290 289 288 288 288 288 288 287 286 286 286 286 286
291 293 291 295 291 294 294 297 300 298 300 295 288 293 297 300 297 290 285 286 284 282 284 287 285 288 288 287 291 291 290 289 291 290 292 293 293 292 292 292 291 291 291 290 290 290 289 289 288 289 289 289 289 290 290 291 292 292 292 291 290 290 290 291 291 291 291 290 290 290 290 290 290 289 289 289 288 288 287 287 286 286 285 285 285 285
300 290 292 294 295 294 295 297 295 299 298 295 293 302 291 286 285 290 287 280 281 281 283 287 288 289 291 291 289 290 290 291 290 291 290 291 291 291 292 292 292 291 290 289 289 289 289 288 288 288 288 289 289 290 290 291 291 291 291 291 291 290 290 291 291 291 291 291 290 290 289 289 289 288 288 288 288 287 286 286 285 285 284 284 284 284
300 290 290 291 293 294 294 295 287 291 296 296 296 294 300 293 290 287 287 287 288 283 282 284 286 285 293 294 295 295 294 294 292 290 290 291 291 292 292 292 291 290 290 290 289 289 289 288 288 288 288 288 288 289 290 290 291 290 291 290 290 291 291 290 290 290 290 290 290 289 289 288 288 288 287 287 286 285 285 285 284 284 283 283 283 282
294 296 288 288 293 293 286 291 290 292 288 289 290 290 292 290 293 293 293 288 286 284 284 284 282 286 294 299 298 298 297 295 292 291 291 292 292 292 293 292 292 291 291 291 290 290 289 288 288 288 288 288 288 289 289 290 290 290 290 290 290 289 289 290 290 290 290 289 289 288 287 287 287 286 286 285 285 284 283 283 283 282 282 282 281 281
291 292 288 287 286 286 291 295 296 297 295 291 290 289 291 288 286 284 283 292 288 286 284 284 282 289 296 295 297 298 299 296 295 294 293 293 293 292 293 294 293 292 291 291 291 290 289 288 288 288 288 288 288 288 288 289 289 289 289 290 289 290 289 289 289 289 289 288 288 287 286 286 285 285 284 283 283 283 282 282 281 281 281 280 280 280
297 295 291 286 288 289 294 294 294 294 293 296 294 292 295 293 291 287 282 285 286 287 286 286 283 287 294 295 295 294 294 295 296 295 292 294 293 293 294 294 294 293 292 292 291 290 289 288 288 287 287 287 287 287 287 288 288 289 289 289 289 289 289 289 289 289 288 287 286 286 285 285 284 284 283 282 282 281 281 280 280 281 280 280 279 279
293 289 288 287 292 292 292 295 295 293 295 292 293 295 294 290 292 290 289 288 287 287 284 285 282 287 293 293 292 291 291 291 293 296 295 295 294 294 294 294 294 293 292 292 291 290 289 288 288 287 286 286 286 287 287 288 288 288 289 288 289 288 289 289 288 288 287 287 286 285 284 284 283 283 282 281 280 280 280 280 279 280 279 279 279 278
289 291 290 286 285 287 288 291 291 294 292 289 290 292 293 293 292 291 288 290 286 288 287 286 281 287 288 291 291 289 290 290 291 293 296 295 294 294 293 294 294 293 292 291 290 289 288 287 286 286 286 286 286 287 287 287 288 288 288 288 288 289 289 288 288 287 287 286 285 284 284 283 282 281 280 280 279 278 278 278 278 278 278 278 278 278
292 290 288 284 281 280 279 280 283 285 286 289 291 292 293 293 293 288 286 288 284 287 287 286 286 291 292 291 291 292 291 289 291 292 293 296 294 293 293 293 293 293 292 291 290 288 287 287 287 287 286 286 286 286 287 287 288 288 288 288 289 288 288 287 287 286 286 285 284 283 283 282 281 280 279 279 278 278 278 278 277 277 277 277 277 276
290 290 290 290 288 287 289 290 296 294 289 285 287 290 291 293 294 291 290 288 285 288 287 288 289 289 288 291 291 292 291 292 291 290 290 290 292 293 293 293 292 292 291 290 289 289 288 287 287 287 286 286 286 286 287 287 287 287 288 288 288 289 288 287 286 286 285 284 283 283 282 281 281 280 279 278 278 278 277 277 276 276 275 275 275 275
288 288 290 290 290 292 294 294 295 294 289 290 288 288 291 290 290 288 287 286 290 287 284 290 292 288 290 291 292 293 293 294 295 293 291 291 291 291 292 291 291 291 290 290 289 288 287 287 287 286 286 286 286 287 287 287 287 287 287 287 288 288 287 287 285 285 284 284 283 282 281 281 280 279 278 278 277 277 276 275 275 275 274 274 274 274
288 287 291 291 290 293 293 295 296 295 294 293 292 291 289 290 289 286 287 291 292 287 286 291 292 288 292 292 292 295 296 295 296 295 294 293 291 291 290 290 290 290 290 289 289 289 287 287 287 287 286 286 286 286 287 287 287 287 287 287 288 287 286 285 284 284 283 283 282 282 281 280 279 278 277 276 276 275 275 274 274 274 274 273 273 273
289 287 290 291 289 291 291 291 293 293 294 294 292 291 291 290 289 289 290 292 292 290 292 292 292 292 295 294 294 296 298 298 294 294 292 291 290 290 290 289 290 290 289 289 289 288 288 288 288 287 287 286 286 286 286 286 286 287 286 286 286 286 285 284 283 282 282 282 282 281 280 278 277 277 276 276 275 275 274 274 273 273 272 272 272 272
290 287 291 289 287 287 288 288 290 290 291 290 292 292 291 290 290 290 290 290 291 291 293 292 290 290 296 298 296 295 293 294 293 292 292 292 291 290 289 289 290 290 290 289 289 289 289 289 289 288 287 286 286 286 286 286 287 287 286 286 285 284 284 284 283 283 282 282 281 280 278 277 277 276 275 275 274 274 273 273 272 272 272 271 271 271
289 286 288 287 285 285 286 286 287 287 286 285 287 289 290 290 288 289 287 290 289 288 290 290 288 289 294 295 291 291 293 293 293 293 293 293 292 290 290 290 289 289 289 290 290 290 290 289 289 288 287 287 287 287 286 286 286 286 285 284 284 284 284 283 283 282 282 282 279 278 278 277 276 275 275 274 273 272 272 272 271 271 270 270 270 270
287 287 285 286 284 284 283 285 286 285 285 283 284 287 290 291 291 291 292 292 292 293 288 286 287 293 292 293 292 292 292 293 294 294 293 292 292 291 291 290 290 290 290 290 290 290 290 289 289 289 288 288 287 287 287 287 286 285 285 284 284 284 283 283 282 282 281 280 278 277 277 277 276 275 274 273 272 271 270 270 270 270 269 269 270 270
287 287 286 289 283 282 278 282 285 283 277 280 288 291 293 290 290 289 289 291 293 293 290 293 293 292 292 292 293 292 291 293 294 296 296 294 292 292 292 293 292 292 292 292 292 291 291 291 290 290 289 289 289 288 288 287 286 285 286 285 283 283 282 282 282 282 281 279 278 278 277 276 275 274 273 272 271 270 270 269 269 270 270 269 269 269
285 286 286 286 283 277 280 282 280 275 279 284 284 288 293 294 292 291 292 293 293 293 293 292 293 291 293 294 295 295 295 295 295 294 293 294 294 293 293 292 293 293 293 292 292 292 292 291 291 290 290 289 289 288 287 287 286 286 285 284 283 282 282 282 281 281 280 278 278 277 276 275 274 273 272 271 270 270 269 269 270 269 269 269 269 269
285 286 285 282 282 280 278 280 274 277 283 283 284 285 290 291 291 290 288 291 293 293 293 292 294 294 294 294 292 290 290 289 290 289 291 292 295 295 293 293 293 293 292 292 292 292 291 291 290 290 289 290 289 288 287 287 287 286 284 284 283 282 282 282 281 280 279 278 277 276 276 274 274 272 271 270 269 269 269 269 269 268 269 268 269 269
287 286 286 281 284 276 279 279 280 285 284 281 281 283 288 287 286 287 284 287 292 293 293 292 293 293 292 291 288 287 288 289 289 290 289 290 291 293 294 293 294 293 293 293 293 293 293 292 291 291 290 289 289 288 288 287 286 285 283 283 282 282 281 281 280 279 278 277 277 276 275 274 273 271 270 270 269 268 269 269 268 268 268 267 268 268
286 285 286 283 281 283 279 277 278 279 276 283 286 287 291 288 290 290 288 286 293 293 293 292 291 291 288 285 286 286 289 288 286 289 290 289 291 291 292 293 292 293 292 291 290 290 291 291 291 291 290 288 288 288 287 286 285 284 283 282 281 281 280 280 280 279 278 277 276 275 274 274 272 271 270 269 269 268 269 269 268 267 267 267 267 267
285 285 285 285 282 281 280 277 277 276 280 287 286 287 287 285 290 289 286 281 288 291 293 290 290 290 288 285 284 287 287 285 286 290 291 288 289 290 289 289 288 288 289 288 288 287 288 288 289 289 289 288 287 287 287 286 285 283 282 281 280 280 279 279 280 279 278 277 276 275 274 273 272 271 270 269 269 269 269 268 267 267 266 266 266 266
282 283 284 281 281 282 280 279 277 282 282 284 282 283 284 286 289 287 276 279 285 288 290 289 289 289 288 287 286 287 287 285 287 291 290 289 289 289 288 287 286 286 286 286 287 287 287 287 286 286 287 286 287 287 285 284 284 282 282 280 280 279 279 279 280 280 279 277 275 274 273 272 270 270 269 269 268 267 267 267 266 265 265 265 266 265
280 281 283 279 282 282 282 280 282 283 286 282 282 283 284 286 286 279 275 282 284 285 286 289 290 290 288 286 287 286 288 290 287 285 286 286 286 285 285 286 287 286 285 285 285 286 285 285 285 285 286 286 286 284 283 283 282 281 281 280 278 278 279 280 280 279 277 276 274 272 271 270 269 268 268 268 266 266 265 266 266 265 264 263 264 264
280 281 281 283 280 280 282 279 281 284 287 284 282 283 284 285 277 277 284 283 285 285 286 289 290 289 288 287 287 289 288 284 284 285 284 285 285 285 283 283 283 284 285 285 285 284 284 284 284 285 285 285 283 282 282 282 281 281 280 278 278 278 280 280 279 278 276 274 272 271 269 268 267 266 265 265 265 264 264 265 265 264 263 264 264 262
281 279 278 279 282 282 281 280 279 275 283 283 283 282 282 281 283 284 283 283 285 286 285 286 287 287 288 287 288 288 284 283 283 284 284 285 285 284 283 283 282 282 282 282 283 284 284 283 283 283 283 282 280 280 280 280 279 280 279 278 279 280 280 279 277 276 274 273 270 268 267 266 265 264 263 263 264 263 263 263 261 261 262 262 262 261
286 279 280 281 286 278 279 276 278 285 281 284 286 283 283 285 287 285 286 283 284 284 285 285 286 286 287 287 287 285 284 283 283 283 284 284 284 284 284 284 284 284 283 284 284 283 283 284 283 282 281 279 279 279 280 279 278 279 278 278 280 280 278 277 276 274 272 270 269 266 265 264 263 262 262 262 262 262 262 262 261 261 262 262 262 263
286 283 284 281 287 283 282 284 282 282 284 285 287 284 287 287 287 287 287 286 283 283 285 285 285 286 286 286 286 284 283 283 283 284 283 283 283 283 283 283 283 283 283 282 283 282 282 283 282 282 279 278 277 277 278 279 278 277 277 279 279 278 276 274 272 271 270 269 267 265 263 262 262 261 261 261 262 261 262 261 261 261 263 262 263 264
281 283 282 283 283 284 283 283 284 283 284 285 284 285 286 285 283 283 285 284 285 286 285 285 287 286 285 286 285 284 284 284 283 283 283 283 283 283 284 283 283 283 283 283 282 280 280 281 281 280 278 277 276 276 276 277 278 276 278 279 277 276 274 272 270 270 269 267 265 264 262 261 261 260 260 261 262 262 264 262 261 263 264 263 264 263
282 282 282 281 284 283 279 281 282 283 284 285 284 284 284 284 284 283 283 286 287 286 285 286 286 285 285 285 285 284 284 284 284 283 283 283 283 283 283 283 283 282 282 281 282 279 279 279 279 278 278 277 276 275 275 275 277 278 277 277 276 274 272 270 269 268 267 265 264 262 261 261 261 260 259 260 261 262 263 263 263 264 264 264 264 264
280 284 281 282 282 281 280 280 280 280 281 283 285 285 285 285 283 283 283 283 283 285 285 285 285 284 285 284 285 284 284 284 283 283 282 283 283 283 283 283 283 282 282 283 282 279 278 278 278 278 278 278 278 275 274 274 274 276 274 273 273 270 269 269 268 268 266 264 264 262 261 262 262 261 261 260 261 262 262 262 263 263 263 264 264 263
284 283 277 282 279 280 278 280 280 282 282 283 283 284 285 287 285 283 282 282 282 282 283 283 284 284 284 284 285 284 284 284 283 283 283 283 283 283 283 283 283 283 283 281 280 278 278 278 278 278 278 278 279 276 273 273 273 274 272 271 269 268 268 268 267 267 265 264 263 263 262 263 262 263 263 261 261 263 263 263 262 263 263 263 264 264
282 279 282 280 276 278 279 279 281 278 279 282 283 284 284 285 285 283 283 282 282 282 282 282 282 283 283 284 284 284 283 284 284 284 283 283 283 283 283 283 283 283 283 282 280 278 278 278 278 278 278 278 279 277 274 272 272 272 272 269 268 268 268 267 266 265 264 264 263 263 262 263 263 263 263 262 261 261 261 263 265 264 263 262 265 266
281 282 281 279 279 278 282 282 284 285 284 285 285 286 284 285 284 283 283 282 283 283 284 283 282 282 281 281 283 283 283 284 284 284 283 283 284 284 284 283 283 282 282 281 278 276 276 277 277 277 277 278 278 276 274 272 271 270 269 268 267 267 267 267 266 266 264 263 263 263 263 263 262 262 263 262 262 262 262 262 264 267 268 267 266 267
Wind_Speed
5 8 8 9 12 12 12 14 14 12 5 3 4 9 10 10 10 5 6 4 4 4 10 13 14 15 14 9 11 9 8 8 7 8 7 6 6 5 4 4 3 3 2 3 1 2 3 3 3 3 3 4 5 5 5 6 7 6 5 6 8 6 5 5 6 6 7 8 8 8 9 9 8 8 8 9 8 9 9 10 10 10 9 9 10 10
3 9 11 15 14 12 12 12 13 9 4 9 9 9 9 9 10 8 1 5 2 5 8 9 11 14 13 9 10 9 9 10 10 9 8 7 6 5 5 5 5 4 3 3 3 3 3 3 3 3 3 4 5 5 5 6 6 5 5 7 7 6 7 7 7 7 7 7 7 7 8 8 8 8 8 9 9 9 9 10 10 9 10 10 10 10
8 12 13 15 11 2 1 6 8 9 9 8 8 7 8 9 9 7 7 6 4 3 9 11 15 13 12 14 10 11 11 8 8 6 7 7 7 5 5 5 5 4 5 5 4 4 5 4 4 4 4 4 4 5 5 4 5 5 6 7 7 7 7 7 7 7 8 8 9 9 9 9 10 10 9 9 9 9 10 11 11 11 10 10 10 10
10 11 17 11 4 5 4 5 6 8 8 8 7 8 10 6 5 5 6 2 5 5 3 3 8 11 13 6 10 9 9 6 4 3 2 3 5 6 6 6 6 6 6 6 6 6 5 5 5 4 4 4 3 4 4 4 5 5 6 7 7 7 8 8 8 9 10 11 12 11 11 11 10 10 9 11 10 10 11 12 11 11 10 11 10 11
13 1 2 9 7 9 9 7 8 7 9 9 11 9 8 9 8 8 2 3 5 9 6 8 11 13 13 14 8 6 4 5 5 4 4 4 3 2 3 2 4 6 6 6 6 6 6 6 5 5 4 4 4 4 4 4 4 4 7 7 8 8 9 8 9 10 10 11 11 11 11 10 11 10 9 9 10 10 10 10 10 10 11 11 10 11
17 3 2 6 7 8 9 8 10 8 9 9 12 13 12 10 11 10 4 4 9 8 9 7 6 8 9 15 14 8 6 7 7 8 9 8 7 6 7 7 5 3 3 6 7 6 5 5 5 5 5 5 5 5 4 4 5 6 6 7 7 7 7 7 7 8 7 7 8 7 7 8 7 9 8 9 8 8 9 9 8 10 10 10 10 10
6 6 6 8 8 8 9 9 9 10 9 9 6 9 13 12 11 10 9 1 6 6 4 4 7 7 2 4 7 8 7 8 7 9 9 9 8 8 7 7 7 7 5 4 5 6 6 6 6 5 5 5 5 4 4 5 6 6 6 6 7 7 6 6 6 5 5 6 7 8 8 8 8 9 8 8 8 8 8 8 9 9 9 10 10 10
7 6 5 5 7 8 8 10 9 11 8 8 4 0 4 6 8 9 8 9 9 5 3 5 6 9 9 4 6 7 8 8 9 10 10 9 10 10 8 8 8 8 8 6 7 7 6 6 6 6 5 4 4 4 5 5 6 7 7 7 7 6 6 5 5 7 7 8 9 10 10 9 10 10 10 9 8 8 8 8 9 8 8 9 9 9
9 9 10 9 9 9 11 11 6 12 9 2 2 1 3 4 7 7 7 7 7 5 8 7 7 4 8 5 6 7 6 9 11 12 13 12 11 11 10 10 9 9 8 8 7 7 7 6 5 5 4 4 5 4 5 5 5 6 7 7 8 8 7 7 8 8 9 9 9 9 9 11 9 10 9 8 8 8 8 9 8 8 8 8 9 9
3 2 8 13 9 10 5 6 2 10 10 3 4 6 5 2 1 5 6 6 6 6 11 8 11 7 12 5 6 5 5 10 12 13 14 14 13 12 11 11 11 9 8 7 7 7 6 5 4 4 4 5 4 5 6 6 5 6 7 8 9 9 7 7 9 9 10 10 9 10 10 11 10 9 8 8 8 8 7 8 8 7 7 6 7 8
2 2 3 3 8 3 7 6 6 3 4 9 7 5 4 3 3 3 5 4 4 12 12 10 13 11 8 5 8 7 7 9 7 8 9 11 12 11 11 12 11 10 9 7 7 7 6 5 5 4 5 5 5 5 5 5 6 6 7 9 10 9 8 8 9 10 10 9 9 9 10 11 12 10 9 9 8 7 7 7 7 7 6 6 6 6
4 4 3 2 5 5 7 6 5 2 5 8 4 5 4 2 3 5 3 4 7 13 5 11 14 15 11 2 6 5 7 4 9 12 15 15 15 13 12 12 11 10 9 8 8 8 7 6 5 4 6 6 6 6 6 5 6 7 7 9 11 10 9 9 9 10 10 9 10 10 10 11 10 9 8 9 9 8 8 7 7 6 6 6 6 6
10 9 5 5 3 7 6 6 3 3 3 6 7 7 6 4 3 6 5 8 11 10 3 3 5 6 17 11 3 6 6 6 3 7 14 15 15 14 13 13 11 10 9 9 8 7 7 7 7 6 7 6 6 6 7 7 6 7 8 10 11 10 9 9 9 10 10 9 9 9 10 10 9 9 9 9 8 7 7 6 7 6 6 5 5 6
5 7 12 7 3 8 10 11 7 3 9 11 11 10 8 8 10 9 7 6 7 2 1 3 4 8 5 8 13 3 8 6 5 4 12 15 16 15 14 12 11 10 9 9 8 8 8 7 7 7 7 7 6 7 7 7 7 7 8 9 11 11 9 9 9 9 10 10 9 9 9 9 8 9 8 8 8 7 6 6 6 6 6 5 6 5
7 4 11 13 9 14 15 15 12 6 12 14 11 12 10 8 5 9 8 10 6 1 3 1 5 4 6 3 4 5 4 5 5 3 8 12 13 13 13 12 11 11 10 9 8 8 8 8 8 7 7 6 6 7 7 6 7 8 8 9 11 11 10 9 9 9 9 9 9 8 8 8 7 8 8 7 7 7 7 6 6 6 5 5 5 5
16 9 5 15 3 18 15 13 9 8 7 10 9 8 11 12 6 10 1 3 1 1 3 5 6 3 4 4 5 5 6 5 5 6 10 13 13 13 13 13 12 11 10 9 9 9 9 8 8 7 7 6 6 7 6 7 7 8 8 10 10 11 11 10 9 9 8 8 8 9 9 9 9 8 7 7 6 6 6 6 6 6 6 5 5 5
3 9 6 5 2 14 13 8 8 10 7 9 9 11 9 5 3 0 2 2 1 3 9 6 5 7 1 3 6 6 7 6 5 8 10 13 14 14 13 12 12 11 11 10 10 10 10 9 8 7 7 7 7 7 7 8 8 9 10 11 11 11 10 10 9 9 9 9 9 9 9 8 8 8 8 7 8 7 6 6 6 6 5 5 5 4
4 2 1 8 7 1 4 4 4 4 2 9 7 9 6 2 4 2 8 2 4 11 6 8 9 7 7 7 6 7 8 8 8 9 12 12 13 14 13 13 13 13 12 11 10 9 10 9 10 8 7 8 8 9 8 9 8 9 9 11 12 11 11 10 9 9 8 9 9 9 9 9 8 8 8 7 6 6 5 5 5 5 5 5 4 4
5 6 5 2 3 5 2 2 3 2 4 3 2 3 9 7 7 9 2 9 8 9 7 6 10 11 11 7 5 9 11 12 12 11 11 14 14 14 14 14 13 11 11 11 11 11 10 10 10 10 10 9 9 9 8 9 8 8 9 10 10 12 11 11 8 8 8 7 7 7 8 8 7 7 6 6 6 5 6 6 6 5 5 5 5 5
4 9 3 3 3 5 5 8 11 10 5 1 2 4 4 3 8 9 10 3 3 10 5 6 6 10 9 10 13 14 14 14 14 13 14 16 16 15 14 15 15 14 13 13 13 12 12 11 11 11 11 11 10 9 9 9 8 10 10 11 10 10 10 10 10 9 9 7 7 8 8 7 7 7 6 5 5 5 6 5 6 6 6 5 5 5
7 3 7 4 1 8 6 10 12 14 14 9 6 9 5 4 3 4 4 8 6 7 8 8 8 4 7 11 13 13 14 15 18 16 13 14 15 15 16 15 16 15 14 13 13 13 13 12 12 11 9 9 8 7 7 8 9 9 9 10 11 12 11 10 9 9 8 8 8 9 8 7 7 7 6 6 6 6 6 6 6 5 5 5 5 4
3 5 9 6 5 9 6 7 11 9 13 14 14 16 16 12 9 7 9 4 3 3 7 6 12 3 3 4 1 3 8 14 15 16 14 14 15 16 14 16 15 14 14 14 13 13 12 12 12 10 9 8 8 8 9 9 8 9 9 9 10 10 9 10 9 9 9 8 8 8 8 7 6 5 5 6 6 6 5 5 5 4 4 5 4 4
6 1 4 5 9 9 5 3 1 1 3 5 10 11 11 9 8 8 10 5 1 4 3 2 6 5 3 3 4 5 5 5 6 10 7 11 13 16 14 15 15 14 15 15 14 12 11 11 11 11 11 11 11 10 10 9 9 10 10 10 9 10 10 9 9 9 8 8 8 9 8 7 6 6 6 6 6 6 6 5 4 3 4 4 3 3
6 1 3 3 3 2 2 3 0 0 3 6 7 5 8 16 14 9 3 2 7 4 3 5 8 4 3 4 4 5 3 2 3 5 9 7 10 12 14 14 15 13 13 11 10 10 10 11 11 10 12 12 11 11 11 10 9 9 9 10 10 11 11 10 9 9 8 8 9 9 8 7 7 7 6 6 6 7 6 4 4 3 3 3 2 2
6 7 7 4 2 3 3 3 5 3 4 8 10 10 8 2 4 2 2 0 4 9 6 7 14 3 2 2 1 2 3 2 4 3 6 9 8 10 12 12 11 12 12 12 12 12 12 11 12 12 11 11 11 11 11 11 10 10 10 10 10 10 10 9 8 9 9 9 10 9 8 8 8 7 7 7 6 6 5 5 4 3 3 2 2 1
8 8 11 10 14 15 11 14 15 13 14 6 7 11 14 15 12 6 9 7 8 8 10 10 13 1 3 3 1 2 2 2 3 5 4 4 9 11 11 11 12 12 12 13 12 12 13 13 10 10 11 10 11 11 11 11 11 11 10 11 9 10 10 9 8 9 9 9 9 9 9 8 8 8 8 7 7 6 5 4 4 4 3 2 1 1
2 1 10 16 16 16 8 2 5 14 11 10 14 14 16 17 15 9 5 8 16 5 9 17 9 2 4 5 6 6 5 6 7 7 8 7 6 8 9 9 11 11 11 14 13 10 9 11 14 13 12 11 12 12 11 12 12 11 11 11 10 10 10 9 9 9 9 9 9 8 8 7 7 7 7 7 7 6 5 5 4 3 3 2 1 1
0 5 15 17 15 12 5 2 7 17 16 19 17 18 17 17 16 16 16 17 7 3 16 8 8 11 8 7 8 8 7 6 6 8 8 8 8 8 10 9 8 7 8 9 10 13 15 14 12 12 13 14 13 12 11 11 11 12 12 12 11 10 9 8 9 9 9 8 7 6 7 6 6 6 7 7 7 6 5 5 4 3 2 2 2 1
5 11 15 12 18 15 4 4 7 12 15 14 18 16 18 19 17 20 23 10 11 13 12 6 14 12 11 10 8 10 9 10 9 8 7 8 9 9 9 11 12 12 11 12 12 12 14 14 15 14 14 14 14 14 13 12 12 11 10 11 10 10 9 9 9 9 9 8 8 7 7 6 5 5 6 7 7 6 5 5 4 3 2 2 2 1
0 9 8 4 11 13 6 1 5 7 10 12 14 19 17 19 24 25 18 15 15 13 11 4 9 10 9 11 9 8 5 4 3 6 6 8 10 11 10 11 13 13 14 14 13 14 15 15 14 14 14 14 16 16 14 14 13 13 12 12 10 9 9 9 9 9 8 8 8 7 7 6 5 5 6 6 6 6 6 5 4 3 3 3 2 2
6 7 7 2 6 10 4 1 2 3 4 10 8 12 17 20 22 22 18 18 15 12 11 5 6 8 7 5 9 4 4 5 4 4 6 7 9 10 11 11 12 13 13 12 13 14 13 13 13 13 14 15 16 16 15 13 12 11 12 10 9 9 10 10 11 9 9 9 8 8 8 7 6 6 6 6 6 4 4 5 3 3 2 2 2 3
6 4 4 2 7 10 5 5 2 1 3 2 5 9 16 17 13 13 13 13 13 17 11 3 10 10 6 8 3 3 4 5 7 7 6 7 9 10 11 11 11 11 11 12 12 12 12 12 12 13 15 16 16 16 14 13 12 12 12 9 10 9 11 11 11 11 10 9 8 8 8 7 7 6 6 6 5 5 4 4 3 3 3 3 4 3
8 6 6 7 11 11 2 4 5 3 1 5 13 21 13 10 7 14 10 14 18 15 10 13 17 7 6 8 9 5 6 6 6 7 7 7 8 10 11 11 11 10 11 12 12 12 12 12 14 14 13 13 13 14 14 13 12 12 11 9 12 12 12 11 11 11 10 9 9 9 8 8 6 5 5 5 5 5 5 4 4 4 4 5 4 3
5 8 6 5 8 2 1 4 5 5 12 13 4 4 13 13 17 16 17 18 14 12 11 11 3 7 11 8 12 9 8 10 10 8 7 9 10 10 8 8 9 9 9 9 10 11 11 10 10 12 13 13 13 14 14 14 13 11 13 12 12 13 12 12 11 11 9 8 9 9 9 8 6 6 6 6 5 5 5 5 5 5 5 4 4 3
9 8 8 2 3 3 4 7 5 13 14 1 7 6 4 15 13 15 9 5 9 11 10 11 6 8 9 9 9 9 10 4 3 6 6 6 7 7 8 7 7 7 8 9 9 9 9 11 10 10 10 11 12 12 12 10 11 8 11 10 10 9 13 12 12 11 8 8 8 8 7 8 7 6 6 6 6 5 5 5 5 5 5 4 3 3
7 8 4 2 3 3 3 7 8 6 3 3 3 5 5 3 5 5 8 12 11 13 14 15 14 7 9 8 5 5 5 5 3 3 3 3 4 5 6 6 6 7 7 7 8 8 9 10 10 10 10 9 10 11 11 13 12 12 10 9 10 9 13 12 11 10 8 6 7 7 9 8 7 6 6 7 6 6 6 6 6 6 4 3 2 2
5 3 2 4 3 5 3 6 5 7 3 5 2 2 6 6 6 10 9 12 12 11 11 11 12 7 7 5 6 5 5 3 1 3 5 5 4 3 5 5 5 5 5 4 4 4 4 5 6 8 8 9 10 11 10 9 9 9 8 9 8 8 9 10 7 6 10 8 9 9 9 9 7 7 7 7 7 6 6 7 6 5 3 3 3 3
2 4 2 4 5 4 3 3 2 2 7 3 4 6 8 1 5 8 6 8 5 11 10 10 12 7 7 7 7 6 4 2 5 7 7 7 7 5 3 3 4 4 5 7 6 6 6 5 5 6 8 9 9 8 8 9 11 11 9 9 7 11 8 5 8 10 10 10 9 9 9 9 7 7 7 7 7 7 6 6 5 4 3 4 3 3
1 1 3 4 2 5 4 4 5 6 4 4 4 5 5 3 6 4 2 8 3 8 11 10 11 7 10 10 8 7 4 5 7 6 7 9 8 8 8 5 5 5 5 6 7 7 6 6 7 7 7 8 8 8 8 10 12 12 11 9 8 8 7 9 10 11 10 10 9 9 9 7 6 7 7 7 7 7 7 6 4 4 3 2 2 3
2 2 2 2 4 4 5 5 7 3 4 2 2 2 2 2 7 6 0 5 4 8 7 9 9 7 9 9 9 6 6 6 6 3 7 10 10 9 9 8 7 7 6 5 5 5 6 7 8 7 8 8 9 8 8 8 12 12 12 8 7 8 9 11 14 9 7 8 8 7 6 5 9 7 8 7 6 4 4 4 4 4 4 3 3 3
3 2 4 7 6 7 7 5 2 4 1 3 5 3 4 1 3 6 9 2 3 1 1 4 7 7 10 9 9 5 10 4 2 4 5 7 8 7 6 6 7 8 8 7 6 6 6 6 6 7 7 6 7 7 7 7 9 9 10 9 9 14 12 10 7 8 8 7 7 7 8 5 8 10 7 5 6 6 4 4 4 5 4 3 2 2
0 2 2 3 7 9 8 5 6 4 0 6 2 5 4 5 6 8 1 1 6 3 1 2 4 6 10 13 9 7 3 5 5 4 6 6 7 7 8 7 7 7 6 6 7 7 5 5 5 4 5 5 6 6 6 9 10 8 9 8 13 16 8 7 8 10 8 9 9 9 9 9 7 6 7 6 6 6 5 3 4 4 4 4 3 4
8 7 7 8 3 1 1 7 2 7 2 7 10 4 3 4 2 4 5 3 3 2 6 3 4 4 7 5 5 3 5 4 5 5 4 5 7 8 9 8 8 8 8 8 7 6 7 7 6 6 6 4 5 5 5 9 10 9 9 11 16 8 8 9 8 11 10 10 10 10 10 9 9 8 6 5 4 5 5 5 4 3 4 3 3 3
3 3 3 3 5 4 8 8 6 1 6 11 13 7 6 2 2 6 7 3 1 2 4 4 3 5 6 7 7 4 5 5 3 4 4 5 7 7 6 6 6 7 6 6 7 9 5 6 6 6 5 5 5 3 7 10 10 9 10 15 9 7 6 7 8 8 9 9 9 10 9 8 7 6 4 5 5 4 4 5 5 4 4 4 4 3
6 6 0 2 5 6 4 1 1 3 6 8 2 4 7 4 2 1 4 4 6 3 3 3 5 5 6 5 5 6 5 5 5 5 6 6 6 6 6 6 6 6 6 7 6 6 4 6 6 6 4 5 4 3 7 7 10 10 13 13 6 8 9 9 9 10 9 10 9 10 8 6 4 5 5 4 5 5 5 5 4 4 4 4 3 2
5 1 1 1 2 2 2 4 2 2 4 4 4 4 4 4 2 3 2 4 3 4 6 6 4 5 6 5 6 5 6 6 6 5 4 5 5 5 5 5 4 4 4 4 3 7 4 3 4 5 5 3 4 3 7 8 8 12 14 6 7 7 9 9 10 10 10 9 9 8 9 8 6 5 5 5 4 3 4 5 5 4 4 4 3 3
3 4 1 2 1 2 3 5 3 4 5 4 3 2 3 4 2 1 2 2 2 4 3 1 0 5 6 7 7 6 6 6 5 5 4 5 6 7 7 7 6 7 7 7 7 7 5 5 5 6 7 8 6 6 7 10 10 9 2 6 6 7 9 9 10 9 9 11 8 7 6 7 6 5 5 4 3 3 3 4 4 4 3 4 3 3
3 7 1 6 5 5 0 4 2 3 3 3 1 2 2 2 2 2 1 2 3 2 1 1 3 4 5 5 7 6 6 6 7 6 6 6 6 7 6 7 8 6 7 7 6 7 5 6 8 8 8 9 9 8 10 10 11 9 4 4 7 8 9 10 10 12 11 11 7 6 7 6 8 7 5 5 5 5 5 4 5 4 5 5 5 4
4 9 3 4 3 2 4 1 1 3 1 3 3 5 3 1 3 2 2 1 3 1 1 3 2 2 4 5 5 5 5 6 7 7 8 6 6 6 8 8 9 10 10 7 6 8 9 9 9 9 9 10 8 8 8 10 10 8 7 6 7 10 10 10 9 9 10 8 5 6 6 6 7 6 6 6 5 4 4 5 6 5 3 2 2 2
4 4 4 4 1 5 5 6 6 3 2 5 6 8 8 5 4 3 2 2 2 2 2 3 3 1 2 1 3 3 5 5 5 6 7 7 9 9 9 9 7 8 7 8 6 8 8 7 8 8 9 9 6 7 9 10 9 8 7 7 8 10 11 10 10 9 9 7 6 5 6 5 6 5 5 5 5 4 2 5 7 5 3 2 6 9
8 6 7 4 5 2 5 9 7 1 2 3 6 6 4 6 6 6 6 6 5 4 3 4 4 3 3 3 2 4 5 7 6 6 6 6 8 9 10 10 9 9 9 6 6 6 8 9 8 7 8 9 6 8 8 8 8 8 8 9 10 10 10 11 9 6 6 6 6 7 7 5 5 5 4 4 4 4 4 2 5 12 12 8 7 8
Wind_Direction
170 210 210 214 227 228 221 220 228 253 299 310 295 276 268 272 269 273 134 118 121 270 252 261 262 261 262 224 174 173 174 197 188 188 188 187 183 184 181 175 163 158 123 84 86 61 56 58 55 66 63 71 59 57 51 63 56 47 48 60 65 60 62 77 79 78 87 90 87 77 75 78 69 64 61 57 51 49 46 42 45 45 46 46 47 44
199 227 229 231 236 245 243 222 232 243 263 264 272 266 261 247 262 279 154 126 161 240 266 264 264 261 261 259 166 163 184 201 197 199 195 186 186 181 184 173 179 146 122 164 139 116 104 82 79 90 84 77 77 60 62 60 63 62 65 66 65 57 60 65 66 68 64 60 67 77 72 75 67 57 52 52 45 45 42 40 39 42 42 47 49 47
208 225 232 237 246 219 23 224 232 245 252 246 252 254 256 254 267 260 141 149 154 221 263 264 264 261 258 258 167 181 193 201 192 200 200 185 182 185 181 176 168 164 162 157 137 134 117 109 95 96 94 83 77 75 67 59 78 75 74 71 69 62 63 60 65 72 74 74 74 82 84 83 83 70 67 65 60 53 49 43 39 37 39 40 44 48
238 234 234 242 197 189 203 218 230 238 242 245 229 234 242 264 254 256 128 176 184 226 317 353 287 272 267 231 176 187 197 158 136 149 140 181 187 191 187 179 176 172 168 162 154 145 130 121 119 107 99 96 93 94 82 73 73 75 77 78 81 78 74 75 69 80 82 84 88 87 90 86 88 92 84 75 65 58 53 48 43 41 38 40 43 42
229 47 6 188 196 217 230 211 211 219 236 221 234 244 247 241 240 243 299 153 167 233 246 265 270 267 250 236 183 162 126 144 166 174 188 190 199 141 116 151 192 176 172 155 148 141 143 138 124 119 116 117 108 85 72 66 72 79 79 79 84 84 84 86 92 94 100 101 97 98 102 102 97 89 82 77 67 60 56 55 44 40 40 40 41 40
248 181 156 175 200 215 226 218 208 217 242 240 221 225 244 257 266 268 266 324 284 277 192 212 289 268 241 228 211 139 169 201 181 187 197 188 186 182 192 186 177 165 161 160 152 146 144 137 127 124 122 116 109 92 73 67 78 85 86 86 87 87 87 94 103 112 114 116 119 121 112 105 95 84 75 72 74 68 62 59 55 48 43 43 43 42
257 119 186 171 169 203 216 229 212 201 242 253 265 205 233 251 269 268 267 166 269 264 89 204 243 279 120 203 170 147 176 191 170 205 194 183 183 184 188 177 175 176 169 154 141 145 150 143 138 125 114 112 105 92 90 86 82 84 84 84 84 85 82 79 88 93 101 91 85 85 89 92 94 95 82 84 83 82 78 74 65 59 49 45 46 42
140 165 155 160 186 201 213 226 215 202 229 248 47 11 188 247 244 245 240 234 254 311 168 202 244 271 279 249 128 146 178 183 190 201 197 188 184 185 182 176 169 167 169 163 160 157 145 144 144 128 117 112 103 100 95 85 82 82 87 85 86 84 85 81 83 83 89 97 94 95 92 90 91 92 96 90 88 87 85 80 74 67 58 50 47 46
181 175 180 197 205 213 225 233 206 189 217 270 81 67 205 247 257 243 238 240 252 289 263 184 185 271 256 207 137 162 194 205 211 197 195 190 185 180 180 172 166 164 162 163 161 156 149 139 128 128 120 108 104 95 92 92 91 93 92 91 91 90 86 82 82 86 87 92 98 99 101 98 94 98 97 97 93 90 86 83 77 72 67 60 50 44
13 178 197 210 202 222 194 62 114 175 226 128 124 79 79 92 127 232 226 238 243 240 244 214 177 243 266 212 171 179 250 237 218 195 188 185 179 177 174 168 164 159 156 158 155 146 138 129 116 115 124 116 98 93 97 100 104 102 102 99 97 92 90 90 89 89 89 92 97 98 102 105 105 105 103 99 95 90 87 82 78 73 69 62 57 49
115 156 18 242 220 236 90 67 38 38 66 130 143 132 122 144 177 184 235 240 255 242 242 218 202 211 281 248 188 181 214 224 193 167 170 170 170 172 173 165 164 161 159 158 150 144 131 119 132 146 140 120 108 107 114 108 112 112 111 108 101 99 97 94 94 93 93 94 96 100 103 105 106 105 107 106 97 95 90 88 83 78 73 65 60 54
170 117 178 197 74 100 122 88 52 36 146 161 162 183 168 183 170 211 213 214 240 259 228 202 216 195 232 219 204 123 68 108 146 173 172 170 172 170 169 167 165 160 158 156 150 145 141 141 151 162 140 136 125 125 121 121 117 119 116 115 108 102 99 97 96 96 94 97 99 100 103 102 103 104 103 101 100 95 93 90 89 84 77 69 62 55
224 202 171 108 287 172 156 159 96 139 167 208 190 187 191 228 148 225 189 215 216 250 118 70 105 204 235 244 68 106 119 107 80 172 172 167 166 165 165 164 160 157 154 158 156 152 157 165 167 164 151 139 143 140 135 128 123 120 120 119 113 105 103 100 100 99 99 98 98 99 98 96 96 96 96 95 95 93 89 84 83 80 75 68 60 49
244 187 187 173 127 218 186 189 154 182 196 190 195 183 192 227 231 244 224 225 251 123 285 116 214 248 304 243 244 245 93 84 74 58 155 161 163 162 161 158 156 157 160 162 159 160 166 168 171 167 155 153 150 147 140 133 126 123 122 120 112 109 107 106 104 103 101 97 99 97 98 98 97 96 92 89 88 86 84 83 81 79 78 73 66 57
227 219 212 160 221 167 202 212 189 188 169 200 195 193 201 206 232 252 227 225 229 252 105 233 146 237 169 199 62 102 77 96 83 80 139 151 153 152 153 151 152 159 164 164 165 168 171 171 171 166 161 156 155 152 144 135 130 127 124 123 120 117 116 114 111 109 105 102 98 99 97 96 97 94 92 86 84 86 87 85 85 81 79 76 68 61
218 248 116 174 31 156 194 207 221 187 172 195 200 213 227 226 254 253 350 324 56 128 179 183 224 244 221 99 106 118 131 106 122 115 142 146 149 150 155 161 165 169 167 167 169 171 175 173 170 166 164 159 160 156 148 142 137 134 132 130 128 124 123 121 118 113 110 104 100 95 93 91 90 92 94 92 86 85 84 84 84 79 75 75 74 64
161 230 106 105 167 176 189 171 182 171 206 172 172 214 201 29 264 274 145 141 323 305 257 153 237 248 99 172 140 154 146 134 134 148 152 154 157 160 165 167 169 171 169 172 175 174 175 172 173 173 168 167 163 162 162 154 150 145 141 138 132 128 125 124 119 115 110 109 106 100 98 98 94 93 92 94 93 89 85 86 84 85 81 75 68 64
206 169 48 158 191 40 27 328 180 28 344 115 212 200 73 40 358 241 247 185 215 253 260 158 208 220 184 241 140 158 179 159 167 167 166 161 164 171 174 172 173 175 174 171 172 173 175 175 175 173 175 173 172 166 162 157 152 147 146 143 137 136 133 130 126 120 118 115 108 106 101 97 97 98 98 99 102 101 102 98 91 87 81 71 70 69
202 259 163 206 83 100 38 104 208 167 346 241 238 104 152 206 220 213 231 248 242 236 251 213 210 233 211 208 144 187 186 182 180 172 168 174 179 182 176 175 173 166 166 172 178 177 178 178 179 179 178 174 173 167 163 156 150 148 146 144 142 139 138 134 129 126 121 116 113 112 109 107 103 100 99 100 101 101 95 87 84 84 81 77 67 58
183 230 178 318 172 141 162 184 203 185 190 284 168 237 227 335 224 196 203 274 237 250 239 257 175 243 198 222 175 190 190 181 171 175 190 187 183 182 178 175 173 175 177 178 180 181 180 180 180 179 177 174 172 168 165 157 153 153 148 147 142 137 137 135 134 134 128 122 121 117 113 109 108 109 110 109 107 100 93 88 87 84 76 68 63 59
220 156 263 121 300 144 194 193 207 179 184 186 206 211 166 215 18 325 253 216 224 246 244 263 248 227 210 200 198 197 184 175 173 185 187 188 187 185 181 176 178 178 179 178 179 179 179 177 176 173 174 168 164 167 160 160 161 155 152 152 149 147 145 143 142 138 132 130 127 125 120 118 115 113 112 109 105 100 95 87 77 72 77 73 65 58
201 165 224 134 192 209 218 181 210 211 198 190 188 200 189 178 188 203 238 176 233 216 243 241 258 292 93 25 360 203 160 170 181 178 181 183 180 182 185 184 179 175 179 178 177 178 174 171 168 165 165 164 163 168 167 164 165 158 160 156 153 150 151 148 146 143 139 134 131 127 124 123 122 121 118 116 109 102 97 88 82 84 90 90 78 69
184 162 208 189 210 209 204 45 30 121 357 243 213 216 200 210 202 206 219 189 134 239 39 293 323 257 70 36 56 48 31 82 159 177 169 173 178 184 188 185 181 177 175 177 174 172 169 166 165 166 168 170 171 172 172 171 172 167 164 159 161 158 157 153 148 144 141 138 137 135 134 135 136 134 131 123 115 106 100 96 95 94 95 87 87 77
74 151 196 228 68 66 100 158 56 154 215 251 253 253 208 207 201 217 247 122 196 173 199 223 239 265 75 38 48 68 41 21 44 145 168 169 174 181 183 182 178 173 174 168 164 160 159 160 162 165 172 173 177 177 177 177 174 171 168 167 164 165 158 154 149 147 144 142 141 142 145 146 145 143 138 125 113 111 110 110 111 100 94 98 101 109
165 210 188 167 228 197 201 178 222 168 201 227 213 199 221 243 176 115 80 95 257 211 191 202 247 212 174 77 81 68 136 129 148 162 166 159 168 174 176 177 176 172 162 159 159 160 155 161 172 175 175 177 178 178 178 178 180 175 175 173 170 167 160 152 152 150 150 149 148 153 156 154 153 147 136 124 120 121 117 122 118 108 105 120 122 126
190 166 167 195 211 221 212 213 209 190 200 194 234 213 200 208 180 145 219 206 240 218 171 219 239 95 109 143 177 181 152 149 148 162 165 172 167 165 173 176 180 175 168 162 158 156 169 172 170 172 177 176 181 179 180 180 181 182 179 177 172 165 158 155 154 157 154 156 157 162 162 158 153 145 134 127 127 129 127 121 116 113 108 102 127 133
197 37 200 202 206 215 231 19 73 109 107 190 206 201 199 201 205 200 228 226 229 217 196 224 222 151 191 186 212 200 205 198 174 179 180 169 150 163 172 175 176 175 164 164 162 161 157 170 184 183 178 181 182 183 183 181 182 182 180 177 174 166 158 158 159 159 160 162 165 164 163 157 150 141 135 135 134 130 124 117 107 111 111 98 127 191
352 217 216 224 231 238 23 281 168 150 182 204 194 200 201 196 197 198 203 223 187 107 244 216 185 225 200 192 204 201 194 210 196 173 174 172 176 174 170 156 154 139 140 144 158 171 179 182 180 181 184 182 183 183 183 183 183 183 180 176 172 166 158 158 160 163 165 165 165 160 157 151 142 138 137 132 128 124 122 116 117 121 121 135 194 165
200 224 227 222 237 240 21 302 207 195 193 194 198 189 187 195 192 202 217 214 169 214 237 131 179 210 208 180 201 200 186 201 202 181 171 165 156 161 162 168 175 176 171 171 177 178 183 184 191 189 183 185 183 184 184 183 184 182 180 175 171 161 156 153 157 163 167 166 163 158 150 137 136 135 129 129 125 124 125 129 133 140 147 173 178 171
112 245 252 248 246 241 235 233 331 266 223 203 192 195 185 184 201 207 213 209 212 230 232 169 195 214 204 185 188 191 187 186 83 91 110 140 160 163 168 172 179 184 182 183 183 186 192 195 191 186 182 182 186 186 187 186 184 183 179 175 161 152 151 150 160 165 165 166 158 146 141 138 137 145 142 134 132 134 137 141 145 151 166 177 185 185
175 241 211 213 263 250 236 354 278 325 300 225 209 197 196 201 205 204 209 215 224 248 246 212 218 234 215 162 178 93 76 76 96 152 174 168 161 166 173 179 184 187 188 187 190 194 196 193 187 183 184 187 189 188 187 185 181 177 177 167 147 150 160 160 168 169 171 168 154 142 141 140 152 156 151 139 137 137 144 149 150 161 172 182 188 192
172 246 61 142 228 239 214 191 200 31 17 323 265 227 209 201 192 193 212 209 205 222 219 210 251 242 152 153 102 97 128 171 196 194 177 175 174 171 180 185 185 188 190 191 193 192 188 185 183 186 189 191 189 186 185 182 178 175 176 153 153 155 165 170 177 174 169 158 137 142 146 151 155 161 153 142 141 145 146 142 149 169 182 191 194 192
189 179 182 191 219 222 244 181 189 95 307 286 243 229 209 199 171 199 215 210 214 212 214 219 232 237 157 144 154 190 190 206 218 192 176 160 176 183 187 185 185 181 185 190 192 191 189 189 193 192 190 188 188 189 189 178 176 178 172 158 170 159 172 178 180 173 167 152 147 146 151 151 159 164 153 151 148 145 141 145 162 181 191 201 187 175
175 194 207 176 229 175 6 170 134 179 219 225 268 317 198 193 186 193 208 213 208 197 218 224 231 124 148 166 175 188 191 204 207 199 175 172 171 184 189 177 171 172 178 183 185 184 188 187 189 193 193 192 190 190 186 183 178 173 176 166 140 167 179 180 180 174 162 147 148 150 150 154 159 161 158 150 147 148 153 158 182 192 196 189 180 173
173 183 211 151 186 156 143 129 170 215 225 28 293 300 244 203 196 211 225 195 205 216 228 241 208 144 170 178 189 194 200 162 114 131 137 147 154 164 172 164 161 167 168 165 174 181 182 187 190 193 192 192 187 184 180 175 176 153 150 148 160 166 176 183 178 176 156 147 147 147 150 157 164 161 154 150 154 158 165 170 186 190 199 186 174 164
169 179 153 129 125 79 137 179 205 220 91 262 322 329 5 29 189 202 248 239 223 214 216 228 233 202 166 176 108 63 78 90 87 50 117 137 168 168 156 170 173 162 164 172 173 179 183 187 190 188 190 183 180 187 182 186 181 170 166 149 156 162 179 177 180 168 146 144 153 157 160 156 162 158 155 157 161 167 172 177 189 198 186 162 160 159
172 123 179 165 195 162 199 211 251 344 328 151 109 208 179 162 163 182 213 243 225 217 207 221 232 206 144 130 108 97 92 99 219 206 168 184 179 172 167 176 164 164 162 153 157 167 167 172 178 183 176 180 183 183 185 168 142 129 129 149 160 143 165 174 166 158 164 167 166 165 160 161 159 158 158 162 164 173 177 179 190 191 160 157 175 169
276 192 240 157 207 148 160 171 321 246 245 214 163 187 198 164 170 177 175 263 200 205 198 203 223 191 142 117 116 115 118 117 239 232 177 179 170 175 137 85 80 98 106 103 96 100 117 134 146 157 158 160 167 166 157 148 155 155 135 152 141 154 165 157 178 175 169 177 171 161 158 161 154 156 160 164 173 173 177 178 184 168 159 169 178 180
45 70 360 197 198 132 186 206 204 210 247 97 155 166 159 69 122 105 99 256 189 177 181 190 207 183 156 142 137 141 140 220 237 239 168 163 171 174 159 146 121 113 112 125 137 139 143 150 156 154 157 162 166 171 153 145 157 159 156 146 152 156 160 180 185 181 178 174 154 157 153 151 150 158 158 163 174 169 169 171 170 145 149 179 175 177
161 179 181 241 210 193 188 207 224 215 254 162 164 109 143 159 134 136 208 260 157 193 187 179 196 169 143 132 141 160 174 223 239 240 144 169 172 163 155 148 140 134 126 115 113 127 131 129 128 143 159 168 169 155 139 142 158 171 170 164 141 162 183 194 195 179 146 136 141 141 144 145 156 146 155 161 155 143 156 158 146 144 165 182 185 179
180 207 206 219 216 218 206 228 300 276 234 130 154 150 147 240 162 173 220 145 200 200 2 174 185 146 134 142 160 168 215 206 84 92 95 105 107 107 89 99 130 142 144 146 141 130 133 147 158 165 168 163 151 138 134 134 159 164 178 163 158 194 204 192 159 139 136 133 134 133 134 129 155 159 157 146 144 146 151 158 152 146 166 182 191 168
141 137 230 211 229 223 218 228 239 281 241 136 104 134 204 141 195 205 181 344 134 174 147 161 155 150 152 165 181 200 128 103 132 105 127 148 145 129 117 113 103 101 109 126 133 143 143 147 152 148 149 153 126 135 138 157 167 174 157 165 195 209 181 156 141 130 147 149 145 146 146 149 137 118 134 132 143 144 151 149 134 146 166 199 172 160
176 162 201 197 199 158 175 242 206 246 139 120 118 69 313 164 289 110 122 47 34 132 150 158 188 158 166 185 187 151 103 103 126 145 137 138 125 128 133 137 140 142 142 139 150 172 155 155 164 165 157 131 129 139 149 161 172 179 181 191 213 186 169 168 149 159 158 157 156 159 155 147 149 134 133 135 145 144 147 140 134 155 184 182 157 172
177 146 205 216 177 183 194 205 214 254 126 185 147 176 184 187 104 137 125 135 104 135 168 165 193 184 186 181 180 150 122 128 128 133 118 96 105 109 119 126 128 133 142 154 160 165 171 157 153 152 143 133 147 151 164 171 175 184 186 211 198 158 166 156 161 151 158 162 160 153 150 143 134 113 133 145 143 140 138 149 149 172 192 184 185 185
210 199 54 199 171 191 213 210 48 312 160 184 36 337 139 141 83 26 101 129 150 209 174 188 202 179 191 174 171 146 138 169 164 161 150 149 134 143 144 157 156 155 154 155 155 152 168 172 161 150 137 151 155 156 174 181 177 182 202 217 162 173 165 160 154 161 167 167 158 146 117 115 132 136 136 142 145 152 155 143 156 186 186 171 195 191
21 103 18 92 279 94 60 128 99 53 149 130 48 351 73 97 54 20 87 115 194 154 176 192 193 164 163 168 154 163 162 169 154 156 142 146 147 145 137 127 132 121 129 121 128 153 175 134 132 153 165 161 169 171 185 192 182 187 215 177 167 167 158 153 158 168 172 156 137 133 123 127 119 127 133 144 159 172 167 161 182 199 176 176 181 179
194 125 203 201 177 170 244 98 107 123 156 169 96 27 355 49 88 98 350 55 113 142 169 245 109 161 157 155 168 168 170 163 153 145 154 149 167 166 166 168 166 168 162 184 181 148 156 166 173 188 189 198 188 183 194 197 206 210 136 166 156 153 153 159 167 166 157 150 129 124 136 148 155 151 148 166 166 180 177 172 192 195 183 177 175 181
233 164 166 224 234 211 321 97 71 25 4 359 34 169 201 169 119 109 49 24 19 35 115 115 81 96 124 158 183 172 162 160 155 160 172 186 183 180 174 181 178 167 194 183 152 165 162 177 192 201 201 213 198 183 197 203 211 204 155 139 145 150 153 164 173 171 162 149 137 149 158 163 151 153 160 177 178 177 179 188 199 196 193 186 180 172
122 124 203 191 178 134 79 136 22 38 80 208 240 261 254 194 146 133 154 13 26 20 76 69 48 117 161 179 170 177 152 158 171 180 185 190 190 189 196 191 189 190 185 179 174 171 187 191 200 210 207 221 208 191 196 211 214 199 177 157 148 156 163 170 165 160 153 153 138 151 163 170 160 175 165 169 183 198 188 186 194 201 207 200 168 178
143 209 156 120 155 216 213 171 162 134 233 177 202 218 221 200 137 140 147 196 220 206 177 175 202 163 147 132 157 162 181 189 176 181 195 201 203 203 200 195 190 195 200 197 174 187 200 202 202 208 214 227 209 193 201 212 206 195 183 159 160 160 167 165 158 152 151 159 159 151 161 169 162 176 161 159 174 180 222 233 215 209 193 196 202 216
198 179 150 180 202 230 135 147 181 172 41 107 192 213 144 138 157 182 200 204 206 204 177 183 191 175 189 212 194 175 187 206 210 187 200 209 212 212 208 197 195 204 202 174 170 195 203 211 209 214 226 230 205 200 202 203 195 188 183 173 170 169 167 159 160 163 162 160 178 167 166 161 156 164 168 165 165 172 182 187 217 224 222 211 205 215